Weather History for Toronto City ON, Ontario

Change the Weather History Date:

Saturday, July 20, 2013

  Actual Average Record
Temperature  
Mean Temperature 78 °F -  
Max Temperature 85 °F - - ()
Min Temperature 70 °F - - ()
Cooling Degree Days 12    
Growing Degree Days 28 (Base 50)    
Moisture  
Dew Point 60 °F    
Average Humidity 59    
Maximum Humidity 90    
Minimum Humidity 33    
Precipitation  
Precipitation 0.04 in - - ()
Sea Level Pressure  
Sea Level Pressure 29.77 in    
Wind  
Wind Speed - ()    
Max Wind Speed -    
Max Gust Speed -    
T = Trace of Precipitation, MM = Missing Value Source: Averaged Metar Reports

Daily Weather History Graph

Daily Weather History Graph

Search for Another Location

Airport:

Trip Planner

Search our weather history database for the weather conditions in past years. The results will help you decide how hot, cold, wet, or windy it might be!

Date:

Astronomy

Jul. 20, 2013 Rise Set
Actual Time 5:54 AM EDT 8:52 PM EDT
Civil Twilight 5:20 AM EDT 9:26 PM EDT
Nautical Twilight 4:37 AM EDT 10:10 PM EDT
Astronomical Twilight 3:45 AM EDT 11:01 PM EDT
Moon 6:54 PM EDT (7/20) 3:32 AM EDT (7/20)
Length of Visible Light 16h 06m
Length of Day
14h 58m
Waxing Gibbous, 93% of the Moon is Illuminated
Jul 20
Waxing Gibbous
Jul 22
Full
Jul 29
Last Quarter
Aug 6
New
Aug 14
First Quarter

Hourly Weather History & Observations

Time (EDT) Temp. Heat Index Dew Point Humidity Pressure Visibility Wind Dir Wind Speed Gust Speed Precip Events Conditions
12:00 AM 73.2 °F - 66.9 °F 81% 29.71 in - North - - N/A   Unknown
1:00 AM 72.7 °F - 67.6 °F 84% 29.69 in - North - - N/A   Unknown
2:00 AM 73 °F - 67 °F 77% 29.71 in - Calm Calm - -  
2:00 AM 73.4 °F - 67.3 °F 81% 29.71 in - North - - N/A   Unknown
3:00 AM 72.7 °F - 68.4 °F 86% 29.70 in - North - - 0.01 in   Unknown
4:00 AM 72.3 °F - 69.3 °F 90% 29.71 in - North - - 0.03 in   Unknown
5:00 AM 72.1 °F - 66.9 °F 84% 29.71 in - North - - N/A   Unknown
6:00 AM 72.0 °F - 67.8 °F 87% 29.73 in - North - - N/A   Unknown
7:00 AM 72.9 °F - 68.5 °F 86% 29.73 in - North - - N/A   Unknown
8:00 AM 72 °F - 60 °F 58% 29.75 in - Calm Calm - -  
8:00 AM 72.3 °F - 60.4 °F 66% 29.75 in - North - - N/A   Unknown
9:00 AM 72.9 °F - 59.9 °F 64% 29.77 in - North - - N/A   Unknown
10:00 AM 74.1 °F - 56.7 °F 54% 29.78 in - North - - N/A   Unknown
11:00 AM 77.4 °F - 52.3 °F 42% 29.78 in - North - - N/A   Unknown
12:00 PM 79.5 °F - 55.2 °F 43% 29.78 in - North - - N/A   Unknown
1:00 PM 83.1 °F 82.3 °F 55.6 °F 39% 29.78 in - North - - N/A   Unknown
2:00 PM 81 °F - 62 °F 42% 29.77 in - Calm Calm - -  
2:00 PM 81.1 °F 82.0 °F 61.5 °F 51% 29.77 in - North - - N/A   Unknown
3:00 PM 83.3 °F 83.1 °F 58.6 °F 43% 29.78 in - North - - N/A   Unknown
4:00 PM 84.9 °F 83.3 °F 53.8 °F 34% 29.78 in - North - - N/A   Unknown
5:00 PM 84.6 °F - 52.5 °F 33% 29.78 in - North - - N/A   Unknown
6:00 PM 82.4 °F 81.6 °F 54.5 °F 38% 29.79 in - North - - N/A   Unknown
7:00 PM 80.6 °F 80.6 °F 55.9 °F 43% 29.81 in - North - - N/A   Unknown
8:00 PM 78 °F - 58 °F 40% 29.83 in - Calm Calm - -  
8:00 PM 78.3 °F - 58.1 °F 50% 29.83 in - North - - N/A   Unknown
9:00 PM 75.7 °F - 57.4 °F 53% 29.85 in - North - - N/A   Unknown
10:00 PM 74.1 °F - 55.6 °F 52% 29.88 in - North - - N/A   Unknown
11:00 PM 73.4 °F - 54.0 °F 50% 29.90 in - North - - N/A   Unknown